Other Surface Observations
Issued by NWS Charleston, SC

Home | Current Version | Previous Version | Text Only | Print | Product List | Glossary On
Versions: 1 2 3 4 5 6 7 8 9 10 11 12 13 14 15 16 17 18 19 20 21 22 23 24 25 26 27 28 29 30 31 32 33 34 35 36 37 38 39 40 41 42 43 44 45 46 47 48 49 50
000
SXUS52 KCHS 291328
OSOCHS

MARINE OBSERVATIONS
NATIONAL WEATHER SERVICE CHARLESTON SC
900 AM EDT SUN MAY 29 2016

...DOWNTOWN CHARLESTON AND HARBOR...

CITY           SKY/WX    TMP DP  RH WIND       PRES   REMARKS
WATERFRONT PRK   N/A     73  73 100 W8        29.81F

...LAKE MOULTRIE...

CITY           SKY/WX    TMP DP  RH WIND       PRES   REMARKS
PINOPOLIS      NOT AVBL

...LAKE AND SUPPLEMENTAL COASTAL OBSERVATIONS...

STATION/POSITION TIME  TEMP    WIND        PRES    WAVE   SWELL
                       AIR SEA DIR/SP/G            HT/PER HT/PER/DIR
                 (UTC) (F)     (DEG/KT/KT) (MB)    (FT/S) (FT/S/D)
FORT PULASKI     1300   69 76  280/ 21/ 25 1015.0R
SAPELO ISLAND    1300   74     300/ 14     1017.0S
WINYAH BAY       1245   77     110/ 13     1013.0S
LAKE MURRAY      1300   68     340/  4/ 10 1017.6R
ACE BASIN NERRS  1200   70     300/  2     1013.0S


...C-MAN AND BUOY OBSERVATIONS...

STATION/POSITION TIME  TEMP    WIND        PRES    WAVE   SWELL
                       AIR SEA DIR/SP/G            HT/PER HT/PER/DIR
                 (UTC) (F)     (DEG/KT/KT) (MB)    (FT/S) (FT/S/D)
BUOY 41004       1250   77 78  180/ 17/ 21 1012.7R   7/ 7
BUOY 41008       1250   72 75  270/ 19/ 23 1016.0R   4/ 4   2/ 60/ 9
FOLLY BEACH CMAN 1300   73     250/ 14/ 19 1011.0R
CAPERS NS BUOY   1308   74 76  220/ 19/ 27 1010.4R
FRIPP NS BUOY    1308   70 76  270/ 16/ 19 1013.1R
5E ST. MARYS GA  1301      78                N/A     3/ 8


STATION/POSITION TIME  TEMP    WIND        PRES    WAVE   SWELL
                       AIR SEA DIR/SP/G            HT/PER HT/PER/DIR
                 (UTC) (F)     (DEG/KT/KT) (MB)    (FT/S) (FT/S/D)
FRYING PAN BUOY  1300   79 78  150/ 19/ 25 1016.0R
BUOY 41025       1250   79 75  150/ 19/ 23 1019.3R   5/ 6   2/260/15
CAPE LOOKOUT NC  1300   74     150/ 16/ 18 1018.3R
BUOY 41002       1250   76 75  120/ 10/ 12 1019.3R   4/ 7   3/ 90/ 7
BUOY 41010       1220   79 79  240/ 10/ 10 1017.5R
ST AUGUSTINE FL  1300   74 78  320/  9/ 10 1019.2R

$$




USA.gov is the U.S. government's official web portal to all federal, state and local government web resources and services.